Flag for France Weather past 2 weeks in Paris, France

Now
73 °F

Broken clouds.


Feels Like: 77 °F
Forecast: 58 / 74 °F
Wind: 8 mph from North

Location: Villacoublay

Current Time: Jul 28, 2014 at 3:55:34 PM

Latest Report: Jul 28, 2014 at 3:30 PM


Visibility: N/A

Pressure: 29.89 "Hg

Humidity: 47%

Dew point: 52 °F

Location of ParisLocation

Historic Weather in Paris — Graph

°F

Paris temperature yesterday

Maximum temperature yesterday: 82 °F (at 3:30 PM)
Minimum temperature yesterday: 61 °F (at 5:30 AM)
Average temperature yesterday: 71 °F

Past Weeks' High & Low Weather Summary

 TemperatureHumidityPressure
High93 °F (Jul 18, 4:00 PM)94% (Jul 13, 4:30 PM)30.18 "Hg (Jul 13, 4:30 PM)
Low54 °F (Jul 14, 3:00 AM)33% (Jul 24, 6:00 PM)29.74 "Hg (Jul 19, 6:00 PM)
Average71 °F68%29.99 "Hg
* Reported Jul 13 2:00 PM — Jul 28 2:30 PM, Paris, Weather by CustomWeather, © 2014

Note: Actual official high and low records may vary slightly from our data, if they occured in-between our weather recording intervals... More about our weather records

Advertising

Paris weather history for previous 24 hours

 ConditionsComfort  
Time TempWeatherWind HumidityBarometerVisibility
2:30 PM
Jul 28
70 °FClear.10 mph57%29.89 "HgN/A
2:00 PM70 °FBroken clouds.12 mph57%29.92 "HgN/A
1:30 PM72 °FScattered clouds.10 mph57%29.92 "HgN/A
1:00 PM70 °FBroken clouds.8 mph64%29.92 "HgN/A
12:30 PM68 °FScattered clouds.9 mph69%29.92 "HgN/A
12:00 PM68 °FBroken clouds.10 mph69%29.92 "HgN/A
11:30 AM66 °FBroken clouds.10 mph78%29.92 "HgN/A
11:00 AM64 °FScattered clouds.9 mph78%29.92 "HgN/A
10:30 AM64 °FBroken clouds.6 mph83%29.92 "HgN/A
10:00 AM63 °FBroken clouds.6 mph88%29.92 "HgN/A
9:30 AM61 °FMostly cloudy.10 mph94%29.92 "HgN/A
9:00 AM61 °FPartly sunny.10 mph94%29.92 "HgN/A
8:30 AM61 °FMostly cloudy.7 mph94%29.92 "HgN/A
8:00 AM61 °FBroken clouds.8 mph94%29.92 "HgN/A
7:30 AM61 °FPartly sunny.9 mph94%29.92 "HgN/A
7:00 AM61 °FMostly cloudy.12 mph94%29.92 "Hg4 mi
6:30 AM63 °FOvercast.8 mph88%29.92 "Hg4 mi
6:00 AM63 °FFog.7 mph94%29.92 "Hg3 mi
5:30 AM63 °FLight rain. Fog.3 mph94%29.92 "Hg3 mi
5:00 AM63 °FLight rain. Passing clouds.6 mph94%29.95 "Hg4 mi
4:30 AM63 °FLight rain. Fog.6 mph94%29.95 "Hg2 mi
4:00 AM63 °FRain. Fog.3 mph94%29.95 "Hg1 mi
3:30 AM64 °FLight rain. Fog.6 mph94%29.95 "Hg2 mi
3:00 AM63 °FRain. Partly cloudy.5 mph94%29.95 "Hg4 mi
2:30 AM64 °FLight rain. Fog.5 mph94%29.98 "Hg2 mi
2:00 AM64 °FHeavy rain. Fog.9 mph94%29.98 "Hg2 mi
1:30 AM66 °FThunderstorms. Fog.8 mph88%29.98 "Hg2 mi
1:00 AM68 °FMild.5 mph83%29.98 "HgN/A
12:30 AM68 °FPassing clouds.5 mph83%30.01 "HgN/A
12:00 AM68 °FOvercast.6 mph83%30.01 "HgN/A
11:30 PM
Jul 27
68 °FClear.6 mph83%30.01 "HgN/A
11:00 PM68 °FClear.5 mph78%30.01 "HgN/A
10:30 PM68 °FMild.5 mph78%30.01 "HgN/A
10:00 PM68 °FOvercast.6 mph83%30.01 "HgN/A
9:30 PM70 °FRain. Partly sunny.8 mph78%30.01 "Hg1 mi
9:00 PM73 °FMild.9 mph65%30.01 "HgN/A
8:30 PM75 °FMild.10 mph61%30.01 "HgN/A
8:00 PM77 °FWarm.5 mph57%29.98 "HgN/A
7:30 PM77 °FClear.6 mph57%30.01 "HgN/A
7:00 PM75 °FMild.8 mph61%30.01 "HgN/A
6:30 PM79 °FWarm.6 mph48%30.01 "HgN/A
6:00 PM79 °FClear.7 mph48%30.01 "HgN/A
5:30 PM81 °FClear.8 mph45%30.01 "HgN/A
5:00 PM82 °FClear.9 mph37%30.01 "HgN/A
4:30 PM82 °FClear.5 mph42%30.01 "HgN/A
4:00 PM81 °FClear.7 mph39%30.04 "HgN/A
3:30 PM82 °FClear.6 mph42%30.04 "HgN/A
3:00 PM79 °FClear.7 mph51%30.04 "HgN/A
Weather by CustomWeather, © 2014

See weather overviewHow to use our weather pages